Wetbulb
33.01 32.49 31.83 31.32 31.32 31.24 30.53 30.55 30.41 30.77 30.92 30.76 30.90 31.02 30.83 30.16 30.13 29.58 29.39 29.22 28.76 28.08 28.23 28.16 27.43 27.92 26.51 25.99 26.38 26.19 23.42 23.39 20.57 22.17 23.80 24.68 23.89 23.93 25.00 25.72 26.23 25.77 26.76
31.70 30.52 30.18 30.00 29.77 29.23 29.07 29.31 29.80 28.90 29.56 29.06 29.29 29.42 29.43 29.04 28.79 27.90 26.89 27.10 26.84 25.91 26.83 26.19 25.24 26.87 24.62 24.93 23.99 22.88 22.80 23.52 20.86 18.16 20.92 21.54 21.61 22.83 22.70 22.19 24.13 25.75 24.17
30.09 29.28 28.64 28.51 28.07 27.66 27.75 27.97 28.18 28.06 27.86 28.08 28.23 27.89 27.78 27.49 27.13 27.16 26.22 25.69 26.13 25.68 25.89 24.40 24.26 24.09 23.46 22.31 21.90 21.92 22.48 22.69 21.40 19.88 18.65 20.56 20.61 21.29 20.55 20.99 21.18 21.19 23.79
28.60 27.82 26.80 26.58 26.76 26.64 26.86 26.86 26.82 26.73 26.19 26.10 26.44 26.38 26.78 26.71 26.51 26.42 25.25 24.47 24.58 24.59 25.13 24.95 23.69 22.90 22.25 21.43 22.42 21.24 21.81 20.74 20.16 18.51 17.98 18.04 18.46 19.84 19.22 17.40 17.12 19.61 19.29
26.52 25.91 25.44 25.93 25.96 25.56 24.95 25.00 25.07 25.06 25.03 25.11 24.58 24.60 25.00 25.79 26.89 25.39 24.48 23.53 22.88 22.87 23.48 23.44 23.36 23.91 24.65 24.57 22.43 21.29 21.24 19.53 18.29 17.57 16.64 16.37 16.22 16.33 15.82 17.62 16.59 17.23 18.00
24.89 24.18 25.00 24.81 24.64 24.14 23.82 23.72 23.66 23.54 23.76 23.96 23.33 23.31 23.22 25.74 27.82 27.77 25.54 22.52 22.81 22.42 21.86 21.46 22.17 22.64 23.19 24.12 24.40 25.52 23.81 19.19 17.83 16.61 15.84 14.48 15.33 16.71 17.11 15.98 15.55 14.05 11.53
24.31 24.22 23.95 23.80 23.41 22.86 22.88 22.75 22.48 21.83 22.10 21.79 21.44 21.65 21.58 22.65 26.86 26.70 25.85 22.30 21.76 21.72 21.00 20.99 21.14 22.49 22.19 20.80 23.18 24.31 22.46 22.94 22.28 18.06 15.17 16.04 15.88 16.15 16.24 15.30 14.58 13.70 13.19
23.40 23.12 23.18 22.87 22.32 21.98 21.41 20.92 20.58 20.92 20.81 20.55 20.30 20.65 20.95 22.84 25.72 25.72 25.24 21.61 21.40 21.38 20.96 20.67 20.32 20.59 20.92 21.78 22.16 20.06 19.68 19.45 18.82 19.19 18.77 18.08 17.06 17.71 17.33 16.21 15.13 13.80 12.84
22.43 22.00 21.96 22.14 21.54 21.05 20.58 19.56 19.76 19.81 19.87 19.74 21.22 20.08 20.08 20.72 24.28 24.68 23.92 21.28 21.08 20.70 21.59 20.54 20.34 20.61 22.03 24.80 20.92 18.23 17.61 16.51 19.92 22.03 21.25 20.00 19.78 19.49 17.99 14.78 9.14 7.91 5.58
21.78 21.86 21.54 21.44 20.89 19.71 19.36 19.37 20.17 19.54 21.09 21.42 21.54 20.44 21.11 20.17 22.72 23.81 23.64 21.75 19.80 20.07 20.29 20.19 21.87 21.43 23.64 24.59 19.77 17.24 12.87 13.86 16.49 13.52 11.49 12.36 13.80 13.35 15.65 12.91 10.57 5.62 5.26
21.76 20.66 19.94 19.59 19.59 19.06 18.77 19.12 18.64 18.41 18.98 18.41 19.52 19.84 20.19 19.96 19.71 23.03 23.42 21.11 19.96 19.29 17.88 17.96 19.27 22.14 23.92 23.12 22.07 15.44 14.61 18.00 12.18 8.57 7.91 7.78 8.50 9.22 9.41 9.92 9.95 8.50 5.57
19.09 18.62 17.54 16.57 19.04 19.03 16.32 17.94 18.00 17.52 16.87 16.87 17.10 17.34 18.60 19.16 20.34 20.84 21.94 21.84 22.39 18.25 17.35 17.72 18.38 22.97 22.12 20.81 17.86 18.08 18.68 14.61 7.36 5.48 4.71 4.25 4.94 5.43 6.09 6.57 7.42 7.89 9.89
15.61 13.36 13.14 15.06 18.07 18.31 15.53 16.50 14.69 15.76 14.96 15.03 15.76 14.10 14.41 17.10 16.91 19.07 19.60 21.03 21.00 18.49 18.38 19.98 21.74 20.41 18.05 14.60 14.96 15.71 12.18 6.40 4.81 2.80 2.34 3.02 4.30 5.21 5.18 4.66 5.44 6.63 7.55
10.75 12.19 13.22 12.93 13.71 14.14 16.43 16.73 13.97 12.22 11.94 14.66 13.52 11.48 11.04 12.68 13.73 14.52 15.90 16.98 18.75 18.03 18.98 14.14 15.89 14.17 13.38 12.28 8.06 8.82 7.18 5.31 3.95 2.71 2.33 3.33 3.84 2.75 2.19 3.26 2.17 2.98 2.80
11.63 12.69 13.99 13.59 11.78 12.11 13.99 12.60 14.53 14.53 14.38 7.41 6.88 9.02 5.21 7.27 11.63 18.72 19.10 16.75 16.35 18.88 13.84 3.68 4.50 3.99 3.49 3.61 3.56 2.77 3.13 3.04 1.84 2.39 1.38 0.60 0.86 1.06 0.74 2.00 1.28 0.89 -0.16
11.66 12.22 11.33 11.06 9.52 10.68 9.69 8.81 16.61 18.61 20.12 21.13 21.12 17.41 14.04 18.68 20.52 20.23 20.45 20.24 20.87 19.17 4.87 -3.24 0.58 0.97 0.40 0.54 -0.11 -0.07 0.59 0.10 0.71 1.04 0.06 -0.33 -1.22 -1.08 -1.04 -0.40 -0.07 -1.03 -1.44
7.22 8.62 7.96 9.67 8.38 7.22 7.39 7.13 4.65 9.21 15.56 16.85 17.71 18.85 18.96 18.45 19.02 19.06 18.69 19.22 14.81 10.38 -9.92 -4.47 -2.10 -1.79 -1.68 -1.29 -1.20 -1.16 -2.18 -1.24 -0.23 -0.71 -1.13 -1.39 -1.86 -2.18 -2.40 -2.78 -2.35 -1.87 -2.41
1.71 7.30 8.40 7.56 6.12 5.82 6.32 6.54 5.99 3.85 3.26 4.99 10.10 13.10 15.12 16.29 15.99 16.46 17.28 9.62 -1.21 -5.09 -13.02 -9.41 -6.56 -4.77 -3.38 -3.09 -2.74 -3.05 -3.03 -2.79 -2.78 -2.28 -2.55 -2.76 -3.59 -3.95 -4.50 -4.56 -3.62 -3.83 -3.28
3.99 4.71 3.07 4.28 7.62 7.28 5.10 4.79 3.45 1.85 1.54 1.13 0.35 5.60 6.81 11.48 13.15 14.26 12.99 -6.00 -6.12 -7.41 -8.93 -12.88 -9.94 -7.47 -4.45 -3.94 -3.94 -3.97 -4.19 -4.83 -4.60 -4.80 -4.64 -4.39 -4.73 -4.89 -5.55 -4.53 -3.98 -3.69 -2.75
1.73 4.84 6.55 6.28 6.58 5.63 5.20 4.61 4.15 2.95 0.97 -0.14 -0.03 -0.79 -3.75 -3.85 -0.59 -5.00 -4.84 -9.75 -13.88 -10.99 -10.19 -13.30 -7.28 -7.27 -6.20 -5.99 -5.70 -5.67 -6.02 -6.64 -6.88 -6.46 -5.67 -5.20 -5.46 -5.21 -5.64 -5.74 -5.23 -4.93 -3.95
2.14 4.36 6.68 4.16 4.46 3.89 3.15 2.47 1.35 -2.62 -3.20 -3.34 -0.97 1.11 10.26 5.76 -8.43 -8.21 -5.59 -5.33 -7.16 -9.06 -9.64 -16.12 -7.88 -7.60 -7.35 -7.69 -7.21 -6.77 -6.91 -7.46 -7.39 -6.86 -6.44 -6.55 -6.34 -7.24 -5.88 -6.02 -5.93 -4.76 -3.24
6.00 5.00 3.66 4.18 5.01 3.92 3.31 2.07 -1.17 -1.49 -2.98 -2.84 -0.79 0.89 8.58 0.90 -0.96 -2.25 -2.54 -4.86 -8.03 -11.44 -12.68 -13.11 -9.29 -7.98 -7.95 -8.47 -8.04 -7.69 -7.91 -8.40 -8.00 -7.06 -6.82 -6.57 -6.72 -6.87 -7.11 -7.27 -7.09 -5.31 -3.70
4.45 4.94 5.08 5.35 5.24 4.30 2.06 -1.76 -3.42 -3.84 -2.76 -1.74 -1.19 -1.46 -1.50 -2.78 -2.53 -3.23 -4.46 -8.70 -11.70 -11.84 -11.33 -20.12 -15.95 -9.66 -8.54 -8.88 -8.60 -7.47 -8.25 -8.29 -6.90 -6.18 -7.24 -7.60 -7.47 -7.54 -7.05 -7.60 -7.56 -5.94 -4.14
5.15 6.35 6.89 6.06 4.43 0.85 -0.83 -1.40 -0.68 0.15 -0.39 -1.79 -3.21 -2.71 -1.64 -1.41 -2.69 -5.33 -6.72 -10.93 -14.28 -13.43 -13.59 -15.17 -13.62 -12.14 -10.52 -9.86 -8.87 -8.16 -6.25 -5.89 -5.62 -5.66 -4.78 -4.82 -6.41 -6.68 -6.67 -6.66 -6.30 -4.50 -3.07
6.44 6.25 5.49 3.80 1.73 0.74 0.79 0.71 0.05 -0.60 -2.34 -3.50 -2.32 -1.84 -1.89 -3.35 -5.61 -10.01 -10.65 -11.77 -13.46 -13.62 -13.47 -12.75 -12.38 -12.17 -12.84 -11.79 -11.20 -10.06 -8.03 -5.27 -5.17 -5.14 -5.82 -5.77 -6.56 -6.53 -6.01 -5.22 -5.31 -2.52 -0.19
4.88 3.25 2.89 2.85 2.32 0.69 -1.45 -1.56 -2.58 -4.26 -3.13 -2.76 -2.17 -2.34 -3.53 -4.71 -5.77 -9.79 -10.23 -14.30 -15.08 -14.16 -13.95 -11.73 -11.29 -13.64 -13.33 -11.61 -10.26 -7.74 -4.91 0.55 1.81 4.99 6.08 5.38 3.54 2.04 0.64 -0.84 -0.90 -1.27 -0.80
MSLP
1029.71 1029.92 1030.43 1030.65 1030.79 1030.93 1031.12 1031.23 1031.44 1031.54 1031.70 1031.88 1032.01 1032.09 1032.29 1032.26 1031.95 1031.75 1031.88 1032.04 1031.78 1031.73 1031.67 1031.44 1031.52 1031.37 1031.33 1031.22 1031.15 1030.86 1030.78 1030.45 1029.66 1027.98 1027.59 1026.51 1025.72 1025.09 1024.39 1023.89 1023.46 1022.45 1021.60
1030.34 1030.80 1031.04 1031.24 1031.29 1031.47 1031.71 1031.84 1031.95 1032.06 1032.21 1032.37 1032.54 1032.57 1032.75 1033.06 1032.91 1032.60 1032.46 1032.42 1032.15 1032.00 1032.06 1032.10 1032.11 1031.73 1031.65 1031.51 1031.25 1030.86 1030.56 1030.56 1029.95 1028.55 1028.17 1026.77 1025.93 1024.97 1024.26 1023.42 1022.76 1022.20 1021.62
1030.84 1031.07 1031.40 1031.59 1031.81 1031.97 1032.27 1032.40 1032.52 1032.73 1032.77 1032.82 1032.76 1032.81 1033.04 1033.21 1033.34 1033.39 1033.03 1032.88 1032.71 1032.76 1032.61 1032.45 1032.57 1031.98 1031.71 1031.64 1031.15 1030.92 1030.74 1030.49 1030.11 1029.48 1028.15 1027.11 1026.16 1025.24 1023.96 1023.22 1022.55 1021.83 1021.12
1031.16 1031.65 1031.80 1032.00 1032.21 1032.54 1032.66 1032.72 1032.96 1032.96 1033.01 1033.13 1033.23 1033.26 1033.37 1033.44 1033.49 1033.59 1033.49 1033.41 1033.18 1032.86 1032.46 1032.69 1032.63 1032.57 1031.83 1031.88 1031.21 1031.27 1031.06 1030.36 1030.11 1029.53 1028.37 1027.15 1026.44 1025.48 1024.60 1023.00 1021.12 1021.36 1020.17
1031.52 1032.14 1032.18 1032.48 1032.80 1033.09 1033.07 1033.10 1033.06 1033.17 1033.34 1033.61 1033.71 1033.59 1033.57 1033.60 1033.50 1033.73 1034.12 1033.68 1033.17 1032.90 1032.83 1032.64 1032.56 1032.37 1032.00 1032.06 1031.45 1031.04 1030.97 1030.43 1030.15 1029.26 1028.29 1027.46 1026.61 1025.56 1024.73 1023.60 1022.41 1020.66 1019.95
1031.98 1032.08 1032.29 1032.85 1033.10 1033.21 1033.25 1033.50 1033.47 1033.65 1033.89 1033.79 1033.87 1033.96 1033.91 1033.52 1033.43 1033.62 1034.11 1033.67 1033.63 1033.39 1032.86 1032.62 1032.51 1032.22 1032.21 1031.86 1031.40 1030.81 1030.84 1030.41 1029.86 1029.12 1028.38 1027.64 1026.85 1026.11 1025.04 1024.27 1023.10 1021.38 1018.68
1031.80 1032.20 1032.49 1032.78 1033.27 1033.22 1033.44 1033.73 1033.93 1034.04 1034.03 1033.99 1034.15 1034.36 1034.22 1033.99 1033.56 1033.45 1033.44 1033.71 1033.40 1033.63 1033.44 1032.72 1032.57 1032.26 1032.17 1031.81 1031.07 1030.64 1030.61 1030.20 1029.77 1029.22 1028.41 1027.74 1026.76 1026.44 1025.43 1023.89 1023.28 1022.39 1020.41
1031.73 1032.30 1032.42 1033.11 1033.41 1033.41 1033.70 1033.94 1033.92 1034.14 1034.32 1034.26 1034.15 1034.01 1034.23 1033.82 1033.91 1033.84 1033.27 1033.14 1033.55 1033.62 1033.36 1032.90 1032.64 1032.22 1031.95 1031.26 1030.39 1030.20 1030.00 1029.78 1029.51 1028.88 1028.25 1027.64 1027.27 1026.33 1025.65 1024.63 1023.36 1022.24 1020.34
1031.98 1032.44 1032.80 1033.13 1033.27 1033.45 1033.80 1033.91 1034.18 1034.16 1034.16 1034.26 1034.20 1034.08 1033.64 1033.75 1034.12 1033.90 1033.17 1033.31 1033.07 1033.50 1033.13 1032.80 1032.39 1031.94 1031.55 1030.39 1029.97 1029.72 1029.41 1029.26 1028.81 1028.09 1027.95 1027.66 1027.00 1026.33 1025.65 1024.39 1023.48 1022.65 1020.69
1031.96 1032.29 1032.72 1033.05 1033.37 1033.67 1033.89 1034.09 1033.99 1034.39 1034.29 1034.18 1033.95 1033.87 1034.03 1033.72 1034.06 1033.69 1033.10 1033.04 1033.44 1033.35 1033.01 1032.47 1032.00 1031.52 1030.79 1030.06 1029.84 1029.50 1029.19 1028.74 1028.03 1027.87 1027.87 1027.41 1026.87 1026.11 1025.25 1024.78 1023.93 1022.86 1021.62
1031.98 1032.36 1032.78 1033.30 1033.49 1033.89 1033.79 1034.19 1033.94 1033.98 1034.36 1034.16 1034.08 1034.00 1033.63 1033.95 1034.07 1033.52 1033.16 1033.34 1033.32 1032.89 1032.63 1032.12 1031.76 1031.19 1030.20 1029.92 1029.64 1029.72 1029.07 1027.89 1028.16 1028.14 1027.59 1026.85 1026.07 1025.40 1024.84 1024.36 1023.92 1023.13 1021.51
1032.01 1032.47 1033.18 1033.46 1033.56 1033.79 1033.94 1033.97 1033.95 1034.23 1034.42 1034.25 1034.05 1034.03 1034.20 1034.21 1034.03 1033.72 1033.39 1033.31 1032.81 1032.76 1032.33 1031.93 1031.39 1030.35 1030.16 1029.97 1029.94 1029.53 1028.73 1028.60 1028.91 1028.22 1027.42 1026.53 1025.55 1024.57 1024.06 1023.81 1023.08 1022.24 1021.26
1032.26 1033.05 1033.55 1033.56 1033.60 1033.71 1033.78 1033.97 1034.25 1034.35 1034.36 1034.44 1034.51 1034.64 1034.57 1034.44 1034.34 1033.83 1033.56 1033.02 1032.71 1032.35 1031.92 1031.09 1030.43 1030.47 1030.46 1030.49 1030.19 1029.52 1029.30 1029.55 1029.00 1028.26 1027.33 1026.36 1025.68 1024.78 1023.86 1022.84 1022.05 1021.08 1019.88
1032.86 1033.21 1033.33 1033.58 1033.75 1033.83 1034.04 1034.17 1034.22 1034.35 1034.52 1034.60 1034.67 1034.67 1034.56 1034.29 1034.05 1033.80 1033.33 1032.84 1032.38 1031.76 1031.05 1031.33 1030.89 1030.87 1030.75 1030.44 1030.44 1030.05 1029.79 1029.51 1028.96 1028.21 1027.33 1026.46 1025.60 1024.76 1023.81 1022.98 1021.62 1020.32 1018.96
1032.84 1033.16 1033.35 1033.54 1033.78 1033.97 1033.97 1033.89 1033.92 1034.14 1034.23 1034.34 1034.24 1034.15 1034.13 1033.66 1033.39 1032.73 1032.31 1032.12 1031.69 1030.93 1030.93 1031.62 1031.71 1031.60 1031.24 1030.86 1030.45 1030.12 1029.73 1029.24 1028.67 1028.02 1027.26 1026.39 1025.47 1024.70 1023.75 1022.82 1021.85 1020.52 1019.35
1032.89 1033.09 1033.30 1033.57 1033.77 1033.92 1034.08 1034.10 1033.73 1033.46 1033.25 1033.02 1032.92 1032.95 1033.36 1032.86 1032.35 1032.17 1031.82 1031.57 1031.00 1031.05 1031.87 1032.82 1032.52 1032.22 1031.76 1031.21 1030.64 1030.00 1029.61 1029.09 1028.55 1027.89 1027.19 1026.38 1025.43 1024.57 1023.60 1022.62 1021.89 1020.80 1019.28
1032.74 1033.01 1033.26 1033.51 1033.82 1034.17 1034.31 1034.44 1034.35 1033.99 1033.58 1033.34 1033.14 1032.78 1032.67 1032.62 1032.33 1032.02 1031.84 1031.35 1031.95 1032.25 1033.31 1033.35 1033.00 1032.49 1031.90 1031.38 1030.82 1030.30 1029.62 1029.12 1028.49 1027.73 1026.95 1026.12 1025.39 1024.54 1023.62 1022.54 1021.59 1020.57 1019.11
1032.83 1032.97 1033.18 1033.41 1033.68 1034.03 1034.26 1034.36 1034.40 1034.46 1034.34 1034.11 1033.84 1033.58 1033.15 1032.68 1032.54 1032.21 1031.70 1032.33 1032.84 1032.91 1033.25 1033.51 1033.06 1032.49 1031.87 1031.33 1030.79 1030.20 1029.58 1028.86 1028.16 1027.46 1026.69 1026.00 1025.30 1024.51 1023.40 1022.48 1021.48 1020.45 1019.14
1032.88 1033.06 1033.19 1033.37 1033.56 1033.76 1034.04 1034.35 1034.56 1034.70 1034.62 1034.45 1034.32 1033.94 1033.98 1033.28 1032.74 1032.25 1032.30 1033.28 1033.48 1033.50 1033.23 1033.12 1032.73 1032.23 1031.66 1031.15 1030.64 1030.08 1029.49 1028.65 1027.94 1027.29 1026.44 1025.66 1025.03 1024.38 1023.28 1022.39 1021.36 1020.27 1019.16
1032.57 1032.75 1033.00 1033.28 1033.50 1033.80 1034.12 1034.42 1034.60 1034.76 1034.81 1034.71 1034.52 1034.41 1034.22 1034.14 1033.32 1033.02 1033.06 1033.21 1033.37 1033.34 1033.03 1032.68 1032.20 1031.72 1031.26 1030.80 1030.29 1029.75 1029.05 1028.29 1027.54 1026.85 1026.00 1025.29 1024.66 1024.04 1023.15 1022.27 1021.30 1020.12 1018.86
1032.38 1032.76 1033.02 1033.43 1033.61 1033.82 1034.14 1034.45 1034.64 1034.88 1034.72 1034.48 1034.22 1034.04 1033.76 1033.24 1033.46 1033.16 1032.96 1032.97 1033.05 1032.87 1032.61 1032.29 1031.83 1031.28 1030.80 1030.42 1029.92 1029.34 1028.66 1027.82 1027.07 1026.38 1025.51 1024.80 1024.22 1023.58 1022.86 1022.11 1021.13 1019.91 1018.73
1032.26 1032.59 1032.92 1033.23 1033.44 1033.76 1033.99 1034.21 1034.42 1034.53 1034.50 1034.38 1033.91 1033.60 1033.38 1033.42 1033.17 1033.03 1032.84 1032.69 1032.52 1032.43 1032.08 1031.85 1031.26 1030.72 1030.27 1029.89 1029.41 1028.88 1028.15 1027.24 1026.34 1025.69 1024.85 1024.21 1023.70 1023.06 1022.36 1021.53 1020.60 1019.49 1018.34
1032.12 1032.46 1032.80 1033.10 1033.31 1033.55 1033.85 1034.04 1034.21 1034.24 1034.10 1033.88 1033.66 1033.39 1033.14 1033.02 1032.75 1032.61 1032.44 1032.22 1032.09 1031.70 1031.19 1031.37 1031.01 1030.12 1029.47 1029.04 1028.62 1028.12 1027.44 1026.50 1025.67 1025.11 1024.39 1023.56 1022.86 1022.19 1021.53 1020.79 1019.98 1018.92 1017.88
1032.03 1032.36 1032.59 1032.86 1033.12 1033.44 1033.64 1033.79 1033.79 1033.67 1033.54 1033.37 1033.30 1033.01 1032.68 1032.41 1032.24 1032.08 1031.82 1031.68 1031.57 1031.14 1030.69 1030.41 1030.01 1029.49 1028.85 1028.24 1027.61 1027.03 1026.35 1025.43 1024.92 1024.22 1023.68 1022.73 1021.79 1021.00 1020.49 1019.89 1019.15 1018.22 1017.30
1031.92 1032.29 1032.51 1032.76 1032.98 1033.19 1033.35 1033.38 1033.36 1033.28 1033.22 1033.09 1032.80 1032.44 1032.10 1031.90 1031.70 1031.58 1031.44 1031.20 1030.95 1030.58 1030.00 1029.50 1029.09 1028.55 1028.06 1027.38 1026.66 1025.81 1025.00 1024.25 1023.74 1023.17 1022.44 1021.55 1020.48 1019.67 1019.25 1018.73 1018.09 1017.20 1016.41
1031.93 1032.14 1032.36 1032.63 1032.85 1033.02 1033.16 1033.19 1033.16 1033.05 1032.88 1032.57 1032.28 1031.94 1031.67 1031.43 1031.22 1030.96 1030.72 1030.66 1030.35 1029.80 1029.31 1028.74 1028.16 1027.74 1027.15 1026.39 1025.44 1024.55 1023.60 1022.82 1021.97 1020.76 1019.93 1019.06 1018.36 1017.73 1017.46 1017.19 1016.72 1016.32 1015.71
Wind_Speed
8 8 7 6 6 7 7 6 6 6 6 7 6 6 7 7 7 7 6 7 6 6 5 6 7 6 6 6 5 5 7 7 10 12 12 14 17 16 15 13 15 13 12
7 6 6 6 6 7 7 7 6 7 6 5 5 5 8 8 7 8 7 7 6 8 7 7 7 7 7 6 6 8 7 8 10 17 15 14 15 17 16 17 13 12 13
6 6 6 6 6 7 6 5 5 5 5 5 5 6 7 7 7 7 7 7 7 6 6 6 7 8 7 6 7 7 7 8 9 11 14 12 13 13 15 14 14 14 11
6 6 6 5 6 5 5 5 5 5 5 5 5 5 5 5 6 7 7 6 5 5 5 5 7 8 7 9 8 8 10 10 11 11 12 13 13 13 13 16 16 12 15
6 5 6 5 5 4 5 5 5 5 5 5 5 5 4 5 5 6 5 5 5 5 5 6 7 9 15 12 8 9 10 10 10 10 11 12 12 14 16 14 16 17 14
6 6 6 5 5 5 5 5 5 5 4 4 5 5 5 2 8 10 8 6 7 6 5 6 7 5 9 14 16 19 16 13 13 10 11 13 16 15 14 15 15 16 19
6 5 5 5 4 4 4 4 4 3 3 4 5 4 4 3 7 8 10 5 5 5 4 6 8 7 5 9 14 16 14 18 17 15 14 14 17 16 18 19 16 16 18
6 5 5 5 4 4 4 4 3 2 2 2 3 4 3 3 6 7 8 3 3 4 5 5 6 8 6 13 12 12 12 10 12 10 12 14 15 17 15 15 17 18 17
6 6 5 5 5 4 4 3 2 2 2 1 1 2 2 1 5 7 6 4 6 6 6 5 7 7 15 21 13 13 12 11 13 20 22 27 26 25 21 12 12 12 15
6 6 5 4 4 4 3 2 1 0 1 1 2 2 2 0 4 7 7 4 6 6 6 8 11 11 20 23 15 12 11 13 13 12 12 14 16 14 20 11 10 12 13
6 6 5 4 4 4 3 2 2 1 1 1 2 2 3 1 4 8 9 5 6 6 6 6 6 17 22 24 23 10 13 18 13 12 11 10 10 9 9 9 11 11 13
6 6 5 3 2 3 4 1 1 1 1 2 2 3 2 3 7 8 10 11 12 7 8 7 9 19 24 23 18 21 23 16 9 10 10 10 11 12 11 11 14 13 12
5 5 5 4 3 3 2 1 1 1 0 2 1 1 2 2 2 9 12 13 13 9 7 14 19 20 21 15 17 21 14 7 8 9 10 11 11 12 15 14 13 16 15
6 5 4 4 3 2 1 1 1 0 1 1 2 2 3 3 3 4 6 6 9 9 12 3 13 17 17 15 8 9 7 7 9 10 10 11 11 11 12 11 13 14 14
4 4 3 3 3 2 2 2 2 2 3 3 4 3 3 4 3 10 11 6 7 11 7 4 7 8 8 8 7 7 7 8 9 9 9 11 11 11 12 11 12 13 13
5 4 3 3 2 2 2 2 4 6 8 10 10 7 3 10 14 16 16 18 20 19 6 5 7 7 8 8 8 9 8 9 9 9 10 10 11 12 12 12 11 11 13
5 4 3 3 2 2 1 2 2 4 7 7 8 10 11 12 14 14 16 17 15 15 2 4 7 7 8 8 8 8 10 9 11 9 10 10 11 11 13 12 11 11 13
3 3 3 3 3 2 2 2 2 1 2 3 5 9 11 11 13 15 16 11 7 5 2 4 6 6 7 8 8 8 9 9 10 10 11 10 10 11 12 11 11 12 13
4 3 3 2 2 3 2 1 1 2 3 4 3 5 6 13 15 13 13 1 4 5 3 3 4 4 7 7 8 8 9 9 10 10 10 9 9 10 11 11 12 16 16
3 4 4 2 2 2 2 2 3 3 3 3 4 4 3 3 3 2 2 2 2 4 4 4 5 5 6 7 7 8 9 10 10 9 10 10 9 9 10 12 11 12 13
3 3 4 2 2 2 2 3 3 2 3 4 5 4 13 5 3 3 4 4 5 5 5 3 5 6 6 6 7 8 9 10 10 10 10 9 9 10 10 10 11 12 12
4 3 3 3 2 3 3 3 3 3 3 5 6 5 13 4 5 5 6 6 5 5 5 5 6 7 7 7 8 9 10 11 10 10 10 10 10 10 10 10 11 11 11
3 4 3 3 3 3 3 2 3 3 5 5 5 5 5 5 6 6 6 5 5 5 5 3 5 8 7 7 7 8 10 11 11 9 11 11 11 10 10 10 10 11 11
4 4 3 3 2 3 3 3 4 6 5 4 4 5 6 6 6 7 6 5 4 5 5 5 5 9 10 9 9 9 10 11 9 10 14 12 12 12 10 10 10 13 12
4 3 3 3 3 2 3 4 4 4 4 4 6 6 7 6 6 5 5 5 5 6 7 6 6 9 11 13 15 17 17 19 15 15 12 15 16 17 13 11 12 11 12
3 3 2 2 2 2 3 4 4 3 5 5 6 7 7 7 7 5 6 5 5 6 8 7 9 12 14 13 16 18 19 19 17 19 14 12 12 12 9 10 12 9 11
Wind_Direction
79 84 93 90 84 81 80 78 79 72 64 65 62 65 63 53 44 49 43 27 37 34 21 31 22 21 17 4 355 358 346 336 313 319 318 322 323 321 323 323 318 315 319
96 94 90 86 83 84 77 67 66 72 65 71 69 66 64 48 38 38 34 20 20 25 19 25 16 12 4 7 356 347 339 333 329 316 316 320 320 322 319 319 322 317 319
107 103 95 88 84 78 76 71 71 79 71 68 66 68 75 59 44 31 30 19 9 14 21 21 10 9 3 1 347 348 344 328 321 314 312 318 315 318 318 317 319 314 311
104 103 98 89 86 87 90 84 81 74 75 68 64 71 89 67 56 40 27 14 4 22 16 27 12 354 6 353 348 353 330 329 322 314 310 315 318 323 318 323 320 321 320
113 113 102 93 90 94 84 83 80 72 75 79 73 61 86 63 44 44 19 4 12 14 2 18 2 345 0 346 346 330 329 329 319 313 314 317 321 323 326 326 314 317 317
127 118 108 110 107 89 77 74 77 81 85 87 74 70 58 66 48 32 29 14 5 354 5 360 345 343 343 338 328 327 331 325 315 318 316 313 314 319 321 316 314 319 316
130 124 122 113 97 97 98 93 89 86 88 83 72 71 59 4 38 28 32 8 1 334 354 340 335 333 320 315 305 325 323 315 319 319 309 310 314 320 315 314 315 308 304
126 125 117 127 132 116 107 100 92 81 80 90 81 69 61 18 14 5 19 17 324 314 322 314 313 309 321 311 320 329 317 317 315 304 302 314 309 309 309 309 308 308 300
146 142 143 152 141 129 125 114 96 76 75 61 88 74 83 40 350 348 11 355 345 324 311 317 306 299 317 324 336 320 318 314 305 309 318 313 310 313 312 313 311 312 307
158 151 146 136 141 136 128 125 128 307 66 35 353 66 329 349 333 341 355 352 315 310 319 316 313 322 320 332 330 326 319 308 314 325 315 306 306 302 314 312 310 301 302
144 136 131 146 150 144 132 171 152 139 28 341 310 322 337 24 339 334 333 340 312 321 316 313 313 312 325 330 328 330 302 317 336 321 306 304 306 308 312 310 304 297 297
140 136 141 143 155 132 140 158 128 205 240 313 337 342 334 0 340 327 331 326 324 328 309 306 294 310 327 325 326 311 318 337 315 307 307 309 314 316 316 311 302 294 281
133 148 166 152 141 147 141 152 120 4 337 318 315 293 289 309 298 324 322 316 326 317 301 301 327 325 328 324 312 319 332 312 307 306 307 308 311 311 310 311 307 304 297
152 167 163 163 168 174 166 166 169 230 291 267 273 269 266 253 260 292 272 268 291 305 298 359 327 334 327 317 315 313 307 306 306 304 304 305 309 311 309 314 315 319 314
163 173 175 171 179 182 189 197 198 216 199 205 226 221 247 283 264 294 312 312 309 306 1 9 342 330 320 316 313 311 309 310 307 304 303 306 306 309 310 315 313 314 312
168 176 177 166 178 182 185 298 293 281 283 271 278 268 227 261 293 305 315 318 320 344 3 339 321 314 310 312 313 314 313 310 309 307 304 303 308 308 308 312 311 311 311
169 168 167 163 164 166 183 179 271 319 317 304 310 304 302 302 302 310 314 315 356 351 344 303 301 305 304 307 309 310 311 311 308 305 304 306 308 308 311 311 311 311 310
163 162 169 174 167 167 175 202 202 228 280 298 322 317 307 309 312 312 311 6 337 336 258 271 283 291 303 307 309 310 309 307 307 306 305 304 306 306 308 308 308 310 310
181 193 174 164 168 169 155 186 224 247 258 272 309 308 308 308 309 312 333 157 284 295 281 271 259 280 302 305 305 303 302 301 301 301 298 300 303 305 303 305 305 307 307
187 179 178 170 177 189 199 228 244 252 270 276 287 277 290 317 295 261 237 238 264 267 271 264 297 294 299 299 300 301 300 297 296 295 296 298 299 298 300 305 303 304 305
151 169 179 178 202 193 207 231 243 241 254 264 273 267 290 302 299 291 295 290 280 279 283 258 291 291 288 287 292 294 291 290 289 290 292 295 299 299 299 298 297 297 299
166 169 172 200 204 221 230 230 228 255 257 271 282 281 308 316 287 282 283 280 271 262 258 266 283 285 285 284 287 289 288 288 290 290 291 296 296 295 294 293 295 295 298
162 169 176 205 215 219 240 236 242 246 261 258 266 286 293 273 274 274 275 272 270 275 274 250 262 284 283 277 270 272 279 281 283 289 290 291 288 285 283 287 290 295 298
164 181 199 207 196 214 227 246 251 254 260 264 267 268 271 274 278 274 274 270 270 276 271 261 257 268 284 283 280 275 271 271 275 279 279 278 280 282 277 278 283 289 289
172 184 186 193 203 222 253 259 264 268 270 263 273 274 277 273 272 263 265 271 273 279 281 275 271 273 274 278 279 280 278 281 276 269 267 263 262 265 264 269 274 279 293
146 155 176 195 233 231 239 262 269 257 272 279 278 278 277 279 277 269 272 266 274 276 282 282 279 272 275 279 278 281 287 291 291 287 277 269 267 267 256 260 274 281 287